Regional Weather Roundup
Issued by NWS Little Rock, AR

Home | Current Version | Previous Version | Graphics & Text | Print | Product List | Glossary On
Versions: 1 2 3 4 5 6 7 8 9 10 11 12 13 14 15 16 17 18 19 20 21 22 23 24 25 26 27 28 29 30
000
ASUS44 KLZK 200705
RWRLZK

WEATHER ROUNDUP FOR ARKANSAS
NATIONAL WEATHER SERVICE LITTLE ROCK AR
100 AM CST FRI JAN 20 2017

NOTE: "FAIR" INDICATES FEW OR NO CLOUDS BELOW 12,000 FEET WITH NO
SIGNIFICANT WEATHER AND/OR OBSTRUCTIONS TO VISIBILITY.

ARZ001-003-010-029-200800-
NORTHWEST ARKANSAS

CITY           SKY/WX    TMP DP  RH WIND       PRES   REMARKS
FAYETTEVILLE   PTCLDY    45  45 100 S3        29.60F
FORT SMITH     MOCLDY    45  45 100 E3        29.63R FOG
HARRISON       MOCLDY    46  45  96 S5        29.62F
BENTONVILLE    CLEAR    N/A N/A N/A CALM      29.61S
ROGERS         FOG       43  43 100 E3        29.61F VSB 3/4
SILOAM SPGS    MOCLDY    45  43  93 CALM      29.60F
HIGHFILL       FOG       41  39  93 CALM      29.60F VSB 1/4
$$

ARZ004-005-016-200800-
NORTH CENTRAL ARKANSAS

CITY           SKY/WX    TMP DP  RH WIND       PRES   REMARKS
BATESVILLE     CLOUDY    52  48  87 S9        29.68F
FLIPPIN        CLOUDY    43  39  87 CALM      29.61S VSB 1/2
MTN HOME       PTCLDY    43  43 100 CALM      29.63S FOG
$$

ARZ040-041-200800-
WEST CENTRAL ARKANSAS

CITY           SKY/WX    TMP DP  RH WIND       PRES   REMARKS
MENA           CLOUDY    55  54  94 CALM      29.65F
MOUNT IDA      CLOUDY    55  50  83 VRB3      29.63F
$$

ARZ009-017-025-026-028-200800-
NORTHEAST ARKANSAS

CITY           SKY/WX    TMP DP  RH WIND       PRES   REMARKS
CORNING        CLOUDY    50  50 100 SW14      29.68S FOG
JONESBORO      CLOUDY    54  52  93 SW12      29.69S
NEWPORT        CLOUDY    53  51  93 SW9       29.69S
WALNUT RIDGE   CLOUDY    52  48  87 SW13      29.67F
BLYTHEVILLE    CLOUDY    54  53  97 SW14      29.70S
$$

ARZ022-023-033-042-044-200800-
CENTRAL ARKANSAS

CITY           SKY/WX    TMP DP  RH WIND       PRES   REMARKS
LITTLE ROCK    CLOUDY    54  54 100 S9        29.68F
N LITTLE ROCK    N/A     53  52  95 SW8G16    29.68F
JACKSONVILLE   CLOUDY    52  52 100 CALM      29.66F
HOT SPRINGS    CLOUDY    55  52  89 SW7       29.68F
RUSSELLVILLE   CLOUDY    52  49  89 E3        29.65F
CLINTON        CLOUDY    52  50  93 CALM      29.67F FOG
$$

ARZ036-200800-
EAST ARKANSAS

CITY           SKY/WX    TMP DP  RH WIND       PRES   REMARKS
WEST MEMPHIS   CLOUDY    55  55 100 S9        29.70S
$$

ARZ050-053-066-070-073-200800-
SOUTHWEST ARKANSAS

CITY           SKY/WX    TMP DP  RH WIND       PRES   REMARKS
ARKADELPHIA    CLOUDY    54  53  97 SW3       29.69F
CAMDEN         MOCLDY    55  54  94 S7        29.69F
TEXARKANA      CLOUDY    56  55  97 SW15G24   29.67F
EL DORADO      CLOUDY    56  56 100 S8        29.70F
DE QUEEN       CLOUDY    54  53  97 S3        29.65F
$$

ARZ056-057-069-200800-
SOUTHEAST ARKANSAS

CITY           SKY/WX    TMP DP  RH WIND       PRES   REMARKS
PINE BLUFF     MOCLDY    53  53 100 S5        29.70F
STUTTGART      MOCLDY    55  48  76 S10       29.70F
MONTICELLO     CLOUDY    59  57  93 S9        29.71F

$$






USA.gov is the U.S. government's official web portal to all federal, state and local government web resources and services.